����,���ϕ���(m/s),���ϕ���,�ő�u�ԕ���(m/s),�ő啗��������,�C��(��),���x(%),10���Ԉړ��ώZ�J��(mm),1���Ԉړ��ώZ�J��(mm),���J��(mm),�݌v�J��(mm),����(���ώZ)(MJ/m2),����(���ώZ)(min),���n�C��(hPa),�C�ʋC��(hPa)
2021-08-02T00:00:00+09:00,1.2,��쐼,3.2,��쐼,26.7,84.5,0,0,0,0,19.91,433,991.8,1005
2021-08-02T00:01:00+09:00,1.3,��쐼,3.2,��쐼,26.7,84.6,0,0,0,0,0,0,991.8,1005
2021-08-02T00:02:00+09:00,1.4,��쐼,3.2,��쐼,26.7,84.8,0,0,0,0,0,0,991.8,1005
2021-08-02T00:03:00+09:00,1.5,��쐼,3.2,��쐼,26.7,85.1,0,0,0,0,0,0,991.8,1005
2021-08-02T00:04:00+09:00,1.6,��쐼,3.2,��쐼,26.7,85.1,0,0,0,0,0,0,991.9,1005.1
2021-08-02T00:05:00+09:00,1.6,��쐼,3.2,��쐼,26.9,85.2,0,0,0,0,0,0,991.9,1005.1
2021-08-02T00:06:00+09:00,1.7,��쐼,3.2,��쐼,26.9,84.7,0,0,0,0,0,0,991.8,1005
2021-08-02T00:07:00+09:00,1.7,��쐼,3.2,��쐼,26.7,84.5,0,0,0,0,0,0,991.9,1005.1
2021-08-02T00:08:00+09:00,1.7,��쐼,3,��,26.8,85,0,0,0,0,0,0,991.8,1005
2021-08-02T00:09:00+09:00,1.6,��쐼,3,��,26.8,85,0,0,0,0,0,0,991.8,1005
2021-08-02T00:10:00+09:00,1.7,��쐼,3,��,26.6,84.7,0,0,0,0,0,0,991.8,1005
2021-08-02T00:11:00+09:00,1.7,��쐼,2.8,��쐼,26.6,85.2,0,0,0,0,0,0,991.8,1005
2021-08-02T00:12:00+09:00,1.6,��쐼,2.6,��쐼,26.6,85.6,0,0,0,0,0,0,991.8,1005
2021-08-02T00:13:00+09:00,1.6,��쐼,2.6,��쐼,26.6,85.9,0,0,0,0,0,0,991.8,1005
2021-08-02T00:14:00+09:00,1.5,��쐼,2.6,��쐼,26.8,86.1,0,0,0,0,0,0,991.8,1005
2021-08-02T00:15:00+09:00,1.5,��쐼,2.6,��쐼,26.8,85.6,0,0,0,0,0,0,991.8,1005
2021-08-02T00:16:00+09:00,1.4,��쐼,2.6,��쐼,26.7,85.3,0,0,0,0,0,0,991.8,1005
2021-08-02T00:17:00+09:00,1.4,��쐼,2.6,��쐼,26.5,85.6,0,0,0,0,0,0,991.8,1005
2021-08-02T00:18:00+09:00,1.4,��쐼,2.6,��쐼,26.6,86.1,0,0,0,0,0,0,991.8,1005
2021-08-02T00:19:00+09:00,1.4,��쐼,2.5,��쐼,26.7,86.1,0,0,0,0,0,0,991.8,1005
2021-08-02T00:20:00+09:00,1.4,��쐼,2.5,��쐼,26.6,85.9,0,0,0,0,0,0,991.8,1005
2021-08-02T00:21:00+09:00,1.3,��쐼,2.3,��쐼,26.6,86.2,0,0,0,0,0,0,991.8,1005
2021-08-02T00:22:00+09:00,1.3,��쐼,2.5,��,26.6,86.4,0,0,0,0,0,0,991.8,1005
2021-08-02T00:23:00+09:00,1.4,��쐼,2.5,��,26.5,86.2,0,0,0,0,0,0,991.8,1005
2021-08-02T00:24:00+09:00,1.4,��쐼,2.5,��,26.6,86.7,0,0,0,0,0,0,991.9,1005.1
2021-08-02T00:25:00+09:00,1.5,��쐼,2.5,��,26.6,86.6,0,0,0,0,0,0,991.9,1005.1
2021-08-02T00:26:00+09:00,1.5,��쐼,2.5,��,26.5,86.4,0,0,0,0,0,0,991.9,1005.1
2021-08-02T00:27:00+09:00,1.4,��쐼,2.5,��,26.6,86.8,0,0,0,0,0,0,991.8,1005
2021-08-02T00:28:00+09:00,1.4,��쐼,2.5,��,26.6,87,0,0,0,0,0,0,991.8,1005
2021-08-02T00:29:00+09:00,1.5,��쐼,2.7,��쐼,26.5,86.8,0,0,0,0,0,0,991.9,1005.1
2021-08-02T00:30:00+09:00,1.5,��쐼,2.7,��쐼,26.5,86.8,0,0,0,0,0,0,991.9,1005.1
2021-08-02T00:31:00+09:00,1.5,��쐼,2.7,��쐼,26.6,87.1,0,0,0,0,0,0,991.8,1005
2021-08-02T00:32:00+09:00,1.4,��쐼,2.7,��쐼,26.8,87.1,0,0,0,0,0,0,991.8,1005
2021-08-02T00:33:00+09:00,1.4,��쐼,2.7,��쐼,26.6,86.3,0,0,0,0,0,0,991.8,1005
2021-08-02T00:34:00+09:00,1.5,��쐼,2.7,��쐼,26.6,86.4,0,0,0,0,0,0,991.8,1005
2021-08-02T00:35:00+09:00,1.5,��쐼,2.7,��쐼,26.6,86.7,0,0,0,0,0,0,991.9,1005.1
2021-08-02T00:36:00+09:00,1.5,��쐼,2.7,��쐼,26.5,86.9,0,0,0,0,0,0,991.9,1005.1
2021-08-02T00:37:00+09:00,1.5,��쐼,2.7,��쐼,26.4,87,0,0,0,0,0,0,991.9,1005.1
2021-08-02T00:38:00+09:00,1.5,��쐼,2.7,��쐼,26.4,87.2,0,0,0,0,0,0,991.9,1005.1
2021-08-02T00:39:00+09:00,1.4,��쐼,2.4,�쐼,26.7,87.6,0,0,0,0,0,0,991.9,1005.1
2021-08-02T00:40:00+09:00,1.3,��쐼,2.4,�쐼,26.7,87.1,0,0,0,0,0,0,991.9,1005.1
2021-08-02T00:41:00+09:00,1.3,��쐼,2.4,�쐼,26.6,86.6,0,0,0,0,0,0,991.9,1005.1
2021-08-02T00:42:00+09:00,1.3,��쐼,2.4,�쐼,26.7,86.7,0,0,0,0,0,0,991.9,1005.1
2021-08-02T00:43:00+09:00,1.3,��쐼,2.4,�쐼,26.6,86.6,0,0,0,0,0,0,991.9,1005.1
2021-08-02T00:44:00+09:00,1.4,��쐼,2.4,�쐼,26.5,86.4,0,0,0,0,0,0,991.9,1005.1
2021-08-02T00:45:00+09:00,1.4,��쐼,2.4,�쐼,26.5,86.9,0,0,0,0,0,0,991.9,1005.1
2021-08-02T00:46:00+09:00,1.3,��쐼,2.3,��,26.5,87.3,0,0,0,0,0,0,991.9,1005.1
2021-08-02T00:47:00+09:00,1.3,��쐼,2.3,��,26.6,87.5,0,0,0,0,0,0,991.9,1005.1
2021-08-02T00:48:00+09:00,1.3,��쐼,2.3,��,26.6,87.3,0,0,0,0,0,0,991.9,1005.1
2021-08-02T00:49:00+09:00,1.4,��쐼,2.3,��,26.6,87.2,0,0,0,0,0,0,991.9,1005.1
2021-08-02T00:50:00+09:00,1.4,��쐼,2.3,��,26.7,87.4,0,0,0,0,0,0,992,1005.2
2021-08-02T00:51:00+09:00,1.3,��쐼,2.3,��,26.8,87,0,0,0,0,0,0,991.9,1005.1
2021-08-02T00:52:00+09:00,1.2,��쐼,2.3,��,26.8,86.2,0,0,0,0,0,0,992,1005.2
2021-08-02T00:53:00+09:00,1.1,��쐼,2.3,��,26.8,86.1,0,0,0,0,0,0,992,1005.2
2021-08-02T00:54:00+09:00,1,��쐼,2.3,��쐼,26.7,85.7,0,0,0,0,0,0,992,1005.2
2021-08-02T00:55:00+09:00,1,��쐼,2.3,��쐼,26.6,85.9,0,0,0,0,0,0,992,1005.2
2021-08-02T00:56:00+09:00,1.1,��쐼,2.3,��쐼,26.5,86.3,0,0,0,0,0,0,992,1005.2
2021-08-02T00:57:00+09:00,1.1,��쐼,2.3,��쐼,26.4,86.9,0,0,0,0,0,0,992,1005.2
2021-08-02T00:58:00+09:00,1,��쐼,2.3,��,26.4,87.4,0,0,0,0,0,0,992,1005.2
2021-08-02T00:59:00+09:00,1,��쐼,2.3,��,26.5,87.6,0,0,0,0,0,0,992,1005.2
2021-08-02T01:00:00+09:00,1,��쐼,2.3,��,26.6,87.7,0,0,0,0,0,0,992,1005.2
2021-08-02T01:01:00+09:00,1,��쐼,2.3,��,26.5,87.5,0,0,0,0,0,0,992,1005.2
2021-08-02T01:02:00+09:00,1.1,��,2.3,��,26.6,87.4,0,0,0,0,0,0,992.1,1005.3
2021-08-02T01:03:00+09:00,1.1,��,2.3,��,26.5,87.2,0,0,0,0,0,0,992.1,1005.3
2021-08-02T01:04:00+09:00,1,��,2.3,��,26.5,87.4,0,0,0,0,0,0,992.1,1005.3
2021-08-02T01:05:00+09:00,0.9,��쐼,2.3,��,26.5,87.4,0,0,0,0,0,0,992.1,1005.3
2021-08-02T01:06:00+09:00,0.8,��쐼,2,��,26.5,87.5,0,0,0,0,0,0,992.1,1005.3
2021-08-02T01:07:00+09:00,0.8,��쐼,1.6,��,26.5,87.6,0,0,0,0,0,0,992.1,1005.3
2021-08-02T01:08:00+09:00,0.7,��쐼,1.4,��쐼,26.8,87.6,0,0,0,0,0,0,992.2,1005.4
2021-08-02T01:09:00+09:00,0.7,��쐼,1.4,��쐼,26.7,87,0,0,0,0,0,0,992.2,1005.4
2021-08-02T01:10:00+09:00,0.6,��,1.4,��쐼,26.8,86.4,0,0,0,0,0,0,992.2,1005.4
2021-08-02T01:11:00+09:00,0.5,��,1.4,��쐼,26.7,85.8,0,0,0,0,0,0,992.2,1005.4
2021-08-02T01:12:00+09:00,0.5,��,1.4,��쐼,26.7,85.5,0,0,0,0,0,0,992.2,1005.4
2021-08-02T01:13:00+09:00,0.4,��,1.4,��쐼,26.7,85.3,0,0,0,0,0,0,992.2,1005.4
2021-08-02T01:14:00+09:00,0.3,��,1.4,��쐼,26.6,85.2,0,0,0,0,0,0,992.2,1005.4
2021-08-02T01:15:00+09:00,0.3,�쓌,1.4,��쐼,26.7,85.3,0,0,0,0,0,0,992.2,1005.4
2021-08-02T01:16:00+09:00,0.2,�É�,1.4,��쐼,26.7,85.2,0,0,0,0,0,0,992.2,1005.4
2021-08-02T01:17:00+09:00,0.2,�É�,1.2,��,26.6,85.1,0,0,0,0,0,0,992.2,1005.4
2021-08-02T01:18:00+09:00,0.1,�É�,1.2,��,26.7,85.4,0,0,0,0,0,0,992.2,1005.4
2021-08-02T01:19:00+09:00,0.1,�É�,0.7,���k��,26.7,85.4,0,0,0,0,0,0,992.2,1005.4
2021-08-02T01:20:00+09:00,0.1,�É�,0.5,���k��,26.8,85.2,0,0,0,0,0,0,992.2,1005.4
2021-08-02T01:21:00+09:00,0,�É�,0.5,���k��,26.7,85,0,0,0,0,0,0,992.2,1005.4
2021-08-02T01:22:00+09:00,0,�É�,0.5,���k��,26.8,85,0,0,0,0,0,0,992.2,1005.4
2021-08-02T01:23:00+09:00,0,�É�,0.5,���k��,26.8,84.9,0,0,0,0,0,0,992.2,1005.4
2021-08-02T01:24:00+09:00,0,�É�,0.5,���k��,26.9,84.9,0,0,0,0,0,0,992.2,1005.4
2021-08-02T01:25:00+09:00,0,�É�,0.5,���k��,26.9,84.9,0,0,0,0,0,0,992.2,1005.4
2021-08-02T01:26:00+09:00,0,�É�,0.3,���쐼,26.9,84.7,0,0,0,0,0,0,992.2,1005.4
2021-08-02T01:27:00+09:00,0,�É�,0.2,�k,26.9,84.5,0,0,0,0,0,0,992.2,1005.4
2021-08-02T01:28:00+09:00,0,�É�,0.2,�k,26.9,84.5,0,0,0,0,0,0,992.2,1005.4
2021-08-02T01:29:00+09:00,0,�É�,0.2,�k,26.8,84.5,0,0,0,0,0,0,992.2,1005.4
2021-08-02T01:30:00+09:00,0,�É�,0.6,��,26.8,84.6,0,0,0,0,0,0,992.2,1005.4
2021-08-02T01:31:00+09:00,0.1,�É�,1,��,26.8,84.9,0,0,0,0,0,0,992.2,1005.4
2021-08-02T01:32:00+09:00,0.2,�É�,1.5,��,26.8,85,0,0,0,0,0,0,992.2,1005.4
2021-08-02T01:33:00+09:00,0.2,�É�,1.5,��,26.8,85,0,0,0,0,0,0,992.2,1005.4
2021-08-02T01:34:00+09:00,0.3,��쐼,1.5,��,26.8,85,0,0,0,0,0,0,992.2,1005.4
2021-08-02T01:35:00+09:00,0.4,��쐼,1.5,��,26.8,85.1,0,0,0,0,0,0,992.2,1005.4
2021-08-02T01:36:00+09:00,0.4,��쐼,1.5,��,26.8,85,0,0,0,0,0,0,992.2,1005.4
2021-08-02T01:37:00+09:00,0.5,��쐼,1.5,��,26.7,85,0,0,0,0,0,0,992.2,1005.4
2021-08-02T01:38:00+09:00,0.6,��쐼,1.5,��,26.8,85.3,0,0,0,0,0,0,992.2,1005.4
2021-08-02T01:39:00+09:00,0.6,��쐼,1.5,��,26.8,85.1,0,0,0,0,0,0,992.2,1005.4
2021-08-02T01:40:00+09:00,0.6,��쐼,1.5,��,26.9,85.2,0,0,0,0,0,0,992.2,1005.4
2021-08-02T01:41:00+09:00,0.6,��쐼,1.5,��,27,85.1,0,0,0,0,0,0,992.2,1005.4
2021-08-02T01:42:00+09:00,0.6,��쐼,1.5,��,27,84.7,0,0,0,0,0,0,992.2,1005.4
2021-08-02T01:43:00+09:00,0.6,��쐼,1.5,��,26.9,84.4,0,0,0,0,0,0,992.2,1005.4
2021-08-02T01:44:00+09:00,0.6,��쐼,1.5,��,27,84.7,0,0,0,0,0,0,992.2,1005.4
2021-08-02T01:45:00+09:00,0.6,��쐼,1.5,��,26.9,84.5,0,0,0,0,0,0,992.2,1005.4
2021-08-02T01:46:00+09:00,0.5,��쐼,1.5,��,26.9,84.6,0,0,0,0,0,0,992.2,1005.4
2021-08-02T01:47:00+09:00,0.5,��쐼,1.5,��,26.9,84.6,0,0,0,0,0,0,992.2,1005.4
2021-08-02T01:48:00+09:00,0.5,��쐼,1.7,��쐼,26.9,84.8,0,0,0,0,0,0,992.2,1005.4
2021-08-02T01:49:00+09:00,0.6,��쐼,1.7,��쐼,26.7,85,0,0,0,0,0,0,992.2,1005.4
2021-08-02T01:50:00+09:00,0.6,��쐼,1.7,��쐼,26.9,85.5,0,0,0,0,0,0,992.2,1005.4
2021-08-02T01:51:00+09:00,0.7,��쐼,1.8,��,26.8,85.5,0,0,0,0,0,0,992.2,1005.4
2021-08-02T01:52:00+09:00,0.8,��쐼,1.8,��,26.8,85.6,0,0,0,0,0,0,992.2,1005.4
2021-08-02T01:53:00+09:00,0.8,��쐼,1.8,��,26.8,85.7,0,0,0,0,0,0,992.2,1005.4
2021-08-02T01:54:00+09:00,0.8,��쐼,1.8,��,26.9,85.5,0,0,0,0,0,0,992.2,1005.4
2021-08-02T01:55:00+09:00,0.8,��쐼,1.8,��,27,85.4,0,0,0,0,0,0,992.2,1005.4
2021-08-02T01:56:00+09:00,0.8,��쐼,1.8,��,27,85.2,0,0,0,0,0,0,992.2,1005.4
2021-08-02T01:57:00+09:00,0.9,��쐼,2,��쐼,26.8,84.9,0,0,0,0,0,0,992.2,1005.4
2021-08-02T01:58:00+09:00,0.9,��쐼,2,��쐼,26.7,85,0,0,0,0,0,0,992.2,1005.4
2021-08-02T01:59:00+09:00,0.9,��쐼,2,��쐼,26.6,85.4,0,0,0,0,0,0,992.2,1005.4
2021-08-02T02:00:00+09:00,1,��쐼,2,��쐼,26.6,85.8,0,0,0,0,0,0,992.3,1005.5
2021-08-02T02:01:00+09:00,0.9,��쐼,2,��쐼,26.7,86,0,0,0,0,0,0,992.2,1005.4
2021-08-02T02:02:00+09:00,0.9,��쐼,2,��쐼,26.7,86,0,0,0,0,0,0,992.2,1005.4
2021-08-02T02:03:00+09:00,0.8,��쐼,2,��쐼,26.8,86.3,0,0,0,0,0,0,992.2,1005.4
2021-08-02T02:04:00+09:00,0.8,��쐼,2,��쐼,26.8,86.1,0,0,0,0,0,0,992.3,1005.5
2021-08-02T02:05:00+09:00,0.8,��쐼,2,��쐼,26.7,85.5,0,0,0,0,0,0,992.3,1005.5
2021-08-02T02:06:00+09:00,0.9,��쐼,2,��쐼,26.7,85.7,0,0,0,0,0,0,992.3,1005.5
2021-08-02T02:07:00+09:00,0.8,��쐼,1.6,��쐼,26.9,85.9,0,0,0,0,0,0,992.3,1005.5
2021-08-02T02:08:00+09:00,0.8,��쐼,1.6,��쐼,26.8,85.5,0,0,0,0,0,0,992.3,1005.5
2021-08-02T02:09:00+09:00,0.7,��쐼,1.6,��쐼,26.8,84.9,0,0,0,0,0,0,992.3,1005.5
2021-08-02T02:10:00+09:00,0.7,��쐼,1.6,��쐼,26.8,84.5,0,0,0,0,0,0,992.3,1005.5
2021-08-02T02:11:00+09:00,0.7,��쐼,1.6,��쐼,26.7,84.5,0,0,0,0,0,0,992.4,1005.6
2021-08-02T02:12:00+09:00,0.7,��쐼,1.6,��쐼,26.7,84.5,0,0,0,0,0,0,992.4,1005.6
2021-08-02T02:13:00+09:00,0.8,��쐼,1.6,��쐼,26.8,84.2,0,0,0,0,0,0,992.3,1005.5
2021-08-02T02:14:00+09:00,0.8,��쐼,2,��,26.6,83.4,0,0,0,0,0,0,992.4,1005.6
2021-08-02T02:15:00+09:00,0.8,��쐼,2,��,26.6,83.5,0,0,0,0,0,0,992.4,1005.6
2021-08-02T02:16:00+09:00,0.8,��쐼,2,��,26.8,83.8,0,0,0,0,0,0,992.4,1005.6
2021-08-02T02:17:00+09:00,0.8,��쐼,2,��,26.8,83.6,0,0,0,0,0,0,992.4,1005.6
2021-08-02T02:18:00+09:00,0.7,��쐼,2,��,26.8,83.9,0,0,0,0,0,0,992.4,1005.6
2021-08-02T02:19:00+09:00,0.7,��쐼,2,��,27,84.3,0,0,0,0,0,0,992.4,1005.6
2021-08-02T02:20:00+09:00,0.7,��쐼,2,��,27,84.3,0,0,0,0,0,0,992.4,1005.6
2021-08-02T02:21:00+09:00,0.7,��쐼,2,��,26.8,84,0,0,0,0,0,0,992.5,1005.7
2021-08-02T02:22:00+09:00,0.6,��쐼,2,��,26.8,84.1,0,0,0,0,0,0,992.5,1005.7
2021-08-02T02:23:00+09:00,0.7,��쐼,2,��,26.7,84.3,0,0,0,0,0,0,992.5,1005.7
2021-08-02T02:24:00+09:00,0.6,��쐼,1.4,��쐼,26.7,84.2,0,0,0,0,0,0,992.5,1005.7
2021-08-02T02:25:00+09:00,0.5,��쐼,1.4,��쐼,26.7,84.6,0,0,0,0,0,0,992.5,1005.7
2021-08-02T02:26:00+09:00,0.5,��쐼,1.4,��쐼,26.6,84.5,0,0,0,0,0,0,992.5,1005.7
2021-08-02T02:27:00+09:00,0.5,��쐼,1.4,��쐼,26.3,84.3,0,0,0,0,0,0,992.5,1005.7
2021-08-02T02:28:00+09:00,0.6,��쐼,1.4,��쐼,26.4,84.6,0,0,0,0,0,0,992.5,1005.7
2021-08-02T02:29:00+09:00,0.6,��쐼,1.4,��쐼,26.3,84.9,0,0,0,0,0,0,992.5,1005.7
2021-08-02T02:30:00+09:00,0.6,��쐼,1.7,��쐼,26.2,84.8,0,0,0,0,0,0,992.5,1005.7
2021-08-02T02:31:00+09:00,0.6,��쐼,1.7,��쐼,26.2,85.1,0,0,0,0,0,0,992.5,1005.7
2021-08-02T02:32:00+09:00,0.6,��쐼,1.7,��쐼,26.4,85.6,0,0,0,0,0,0,992.5,1005.7
2021-08-02T02:33:00+09:00,0.6,�쐼,1.7,��쐼,26.5,85.3,0,0,0,0,0,0,992.5,1005.7
2021-08-02T02:34:00+09:00,0.6,�쐼,1.7,��쐼,26.4,84.5,0,0,0,0,0,0,992.5,1005.7
2021-08-02T02:35:00+09:00,0.6,�쐼,1.7,��쐼,26.4,84.6,0,0,0,0,0,0,992.5,1005.7
2021-08-02T02:36:00+09:00,0.6,��쐼,1.7,��쐼,26.3,84.6,0,0,0,0,0,0,992.5,1005.7
2021-08-02T02:37:00+09:00,0.6,��쐼,1.7,��쐼,26.3,84.6,0,0,0,0,0,0,992.5,1005.7
2021-08-02T02:38:00+09:00,0.6,��쐼,1.7,��쐼,26.3,85,0,0,0,0,0,0,992.6,1005.8
2021-08-02T02:39:00+09:00,0.6,��쐼,1.7,��쐼,26.3,84.9,0,0,0,0,0,0,992.6,1005.8
2021-08-02T02:40:00+09:00,0.5,��쐼,1.2,��쐼,26.3,84.7,0,0,0,0,0,0,992.6,1005.8
2021-08-02T02:41:00+09:00,0.6,��쐼,1.4,��쐼,26.2,84.4,0,0,0,0,0,0,992.6,1005.8
2021-08-02T02:42:00+09:00,0.6,��쐼,1.4,��쐼,26.2,84.7,0,0,0,0,0,0,992.6,1005.8
2021-08-02T02:43:00+09:00,0.6,��쐼,1.4,��쐼,26.2,85.2,0,0,0,0,0,0,992.6,1005.8
2021-08-02T02:44:00+09:00,0.7,��쐼,1.4,��쐼,26.1,84.8,0,0,0,0,0,0,992.6,1005.8
2021-08-02T02:45:00+09:00,0.7,��쐼,1.4,��쐼,26.3,85.3,0,0,0,0,0,0,992.5,1005.7
2021-08-02T02:46:00+09:00,0.7,��쐼,1.4,��쐼,26.3,85,0,0,0,0,0,0,992.6,1005.8
2021-08-02T02:47:00+09:00,0.8,��쐼,1.6,��쐼,26.4,84.8,0,0,0,0,0,0,992.5,1005.7
2021-08-02T02:48:00+09:00,0.8,��쐼,1.6,��쐼,26.3,84.5,0,0,0,0,0,0,992.6,1005.8
2021-08-02T02:49:00+09:00,0.9,��쐼,1.7,��쐼,26.3,84.3,0,0,0,0,0,0,992.5,1005.7
2021-08-02T02:50:00+09:00,1,��쐼,1.8,��쐼,26.2,84.2,0,0,0,0,0,0,992.5,1005.7
2021-08-02T02:51:00+09:00,1,��쐼,1.8,��쐼,26.1,84.5,0,0,0,0,0,0,992.5,1005.7
2021-08-02T02:52:00+09:00,1,��쐼,1.8,��쐼,26,84.6,0,0,0,0,0,0,992.5,1005.7
2021-08-02T02:53:00+09:00,1,��쐼,1.8,��쐼,26.1,85.1,0,0,0,0,0,0,992.5,1005.7
2021-08-02T02:54:00+09:00,1,��쐼,1.8,��쐼,26.2,85.2,0,0,0,0,0,0,992.5,1005.7
2021-08-02T02:55:00+09:00,1,��쐼,1.8,��쐼,26.2,85.2,0,0,0,0,0,0,992.5,1005.7
2021-08-02T02:56:00+09:00,1,��쐼,1.8,��쐼,26.1,85,0,0,0,0,0,0,992.5,1005.7
2021-08-02T02:57:00+09:00,0.9,��쐼,1.8,��쐼,26.2,85.3,0,0,0,0,0,0,992.6,1005.8
2021-08-02T02:58:00+09:00,0.9,��쐼,1.8,��쐼,26.2,85.2,0,0,0,0,0,0,992.6,1005.8
2021-08-02T02:59:00+09:00,0.8,��쐼,1.8,��쐼,26.2,85.3,0,0,0,0,0,0,992.6,1005.8
2021-08-02T03:00:00+09:00,0.7,��쐼,1.7,��,26.2,85.3,0,0,0,0,0,0,992.6,1005.8
2021-08-02T03:01:00+09:00,0.7,��쐼,1.4,��,26.3,85.2,0,0,0,0,0,0,992.6,1005.8
2021-08-02T03:02:00+09:00,0.6,��쐼,1.3,��,26.3,84.8,0,0,0,0,0,0,992.6,1005.8
2021-08-02T03:03:00+09:00,0.6,��쐼,1.3,��,26.3,84.8,0,0,0,0,0,0,992.6,1005.8
2021-08-02T03:04:00+09:00,0.6,��쐼,1.3,��,26.2,84.7,0,0,0,0,0,0,992.7,1005.9
2021-08-02T03:05:00+09:00,0.6,��쐼,1.3,��,26.2,84.7,0,0,0,0,0,0,992.7,1005.9
2021-08-02T03:06:00+09:00,0.6,��,1.3,��,26.2,84.8,0,0,0,0,0,0,992.7,1005.9
2021-08-02T03:07:00+09:00,0.6,��,1.3,��,26,84.6,0,0,0,0,0,0,992.7,1005.9
2021-08-02T03:08:00+09:00,0.6,��,1.4,��,25.9,84.8,0,0,0,0,0,0,992.7,1005.9
2021-08-02T03:09:00+09:00,0.6,��,1.6,��쐼,25.9,85.3,0,0,0,0,0,0,992.7,1005.9
2021-08-02T03:10:00+09:00,0.7,��,1.7,��쐼,25.9,85.7,0,0,0,0,0,0,992.7,1005.9
2021-08-02T03:11:00+09:00,0.7,��쐼,1.7,��쐼,25.9,85.8,0,0,0,0,0,0,992.7,1005.9
2021-08-02T03:12:00+09:00,0.7,��쐼,1.7,��쐼,25.9,86.1,0,0,0,0,0,0,992.7,1005.9
2021-08-02T03:13:00+09:00,0.7,��쐼,1.7,��쐼,25.9,86.1,0,0,0,0,0,0,992.7,1005.9
2021-08-02T03:14:00+09:00,0.7,��쐼,1.7,��쐼,26,86.3,0,0,0,0,0,0,992.7,1005.9
2021-08-02T03:15:00+09:00,0.7,��쐼,1.7,��쐼,26,85.9,0,0,0,0,0,0,992.7,1005.9
2021-08-02T03:16:00+09:00,0.8,��쐼,1.7,��쐼,25.9,85.8,0,0,0,0,0,0,992.7,1005.9
2021-08-02T03:17:00+09:00,0.8,��쐼,2,��,25.8,85.7,0,0,0,0,0,0,992.7,1005.9
2021-08-02T03:18:00+09:00,0.8,��쐼,2,��,25.8,86.2,0,0,0,0,0,0,992.7,1005.9
2021-08-02T03:19:00+09:00,0.8,��쐼,2,��,25.8,86.2,0,0,0,0,0,0,992.7,1005.9
2021-08-02T03:20:00+09:00,0.8,��쐼,2,��,25.8,86.4,0,0,0,0,0,0,992.6,1005.8
2021-08-02T03:21:00+09:00,0.9,��쐼,2,��,25.7,86.6,0,0,0,0,0,0,992.6,1005.8
2021-08-02T03:22:00+09:00,0.9,��쐼,2,��,25.8,86.8,0,0,0,0,0,0,992.6,1005.8
2021-08-02T03:23:00+09:00,1,��쐼,2,��,25.8,86.8,0,0,0,0,0,0,992.7,1005.9
2021-08-02T03:24:00+09:00,1,��쐼,2,��,25.8,86.5,0,0,0,0,0,0,992.7,1005.9
2021-08-02T03:25:00+09:00,1,��쐼,2,��,25.8,86.8,0,0,0,0,0,0,992.7,1005.9
2021-08-02T03:26:00+09:00,1,��쐼,2,��,25.7,86.8,0,0,0,0,0,0,992.7,1005.9
2021-08-02T03:27:00+09:00,1,��쐼,1.9,��쐼,25.9,87.2,0,0,0,0,0,0,992.7,1005.9
2021-08-02T03:28:00+09:00,1,��쐼,1.9,��쐼,26,87.2,0,0,0,0,0,0,992.7,1005.9
2021-08-02T03:29:00+09:00,0.9,��쐼,1.9,��쐼,25.8,86.6,0,0,0,0,0,0,992.7,1005.9
2021-08-02T03:30:00+09:00,0.9,��쐼,1.9,��쐼,25.8,86.6,0,0,0,0,0,0,992.7,1005.9
2021-08-02T03:31:00+09:00,0.9,��쐼,1.9,��쐼,25.8,87.1,0,0,0,0,0,0,992.6,1005.8
2021-08-02T03:32:00+09:00,0.9,��쐼,1.9,��쐼,25.7,87.2,0,0,0,0,0,0,992.6,1005.8
2021-08-02T03:33:00+09:00,0.9,��쐼,1.7,��쐼,25.7,87.3,0,0,0,0,0,0,992.7,1005.9
2021-08-02T03:34:00+09:00,0.9,��쐼,1.7,��쐼,25.7,87.5,0,0,0,0,0,0,992.6,1005.8
2021-08-02T03:35:00+09:00,0.9,��쐼,1.7,��쐼,25.7,87.7,0,0,0,0,0,0,992.7,1005.9
2021-08-02T03:36:00+09:00,0.9,��쐼,1.7,��쐼,25.9,88.1,0,0,0,0,0,0,992.7,1005.9
2021-08-02T03:37:00+09:00,0.8,��쐼,1.7,��쐼,25.9,87.8,0,0,0,0,0,0,992.7,1005.9
2021-08-02T03:38:00+09:00,0.9,��쐼,2,��쐼,25.5,86.9,0,0,0,0,0,0,992.7,1005.9
2021-08-02T03:39:00+09:00,0.9,��쐼,2,��쐼,25.4,87.2,0,0,0,0,0,0,992.7,1005.9
2021-08-02T03:40:00+09:00,0.9,��쐼,2,��쐼,25.6,88.4,0,0,0,0,0,0,992.7,1005.9
2021-08-02T03:41:00+09:00,0.9,��쐼,2,��쐼,25.6,88.5,0,0,0,0,0,0,992.7,1005.9
2021-08-02T03:42:00+09:00,0.9,��쐼,2,��쐼,25.5,88.3,0,0,0,0,0,0,992.7,1005.9
2021-08-02T03:43:00+09:00,0.9,��쐼,2,��쐼,25.4,88.4,0,0,0,0,0,0,992.7,1005.9
2021-08-02T03:44:00+09:00,0.9,��쐼,2,��쐼,25.5,89,0,0,0,0,0,0,992.7,1005.9
2021-08-02T03:45:00+09:00,0.9,��쐼,2,��쐼,25.4,89,0,0,0,0,0,0,992.7,1005.9
2021-08-02T03:46:00+09:00,0.9,��쐼,2,��쐼,25.5,89.2,0,0,0,0,0,0,992.7,1005.9
2021-08-02T03:47:00+09:00,0.9,��쐼,2,��쐼,25.6,89.7,0,0,0,0,0,0,992.7,1005.9
2021-08-02T03:48:00+09:00,0.8,��쐼,1.7,��,25.7,89.5,0,0,0,0,0,0,992.7,1005.9
2021-08-02T03:49:00+09:00,0.8,��쐼,1.7,��,25.6,89,0,0,0,0,0,0,992.7,1005.9
2021-08-02T03:50:00+09:00,0.7,��쐼,1.7,��,25.7,89.1,0,0,0,0,0,0,992.7,1005.9
2021-08-02T03:51:00+09:00,0.7,��쐼,1.7,��,25.7,89.1,0,0,0,0,0,0,992.8,1006
2021-08-02T03:52:00+09:00,0.6,��쐼,1.5,��,25.7,88.7,0,0,0,0,0,0,992.8,1006
2021-08-02T03:53:00+09:00,0.5,��쐼,1.5,��,25.8,88.9,0,0,0,0,0,0,992.8,1006
2021-08-02T03:54:00+09:00,0.5,��쐼,1.5,��,25.7,88.4,0,0,0,0,0,0,992.8,1006
2021-08-02T03:55:00+09:00,0.4,��쐼,1.5,��,25.8,88.3,0,0,0,0,0,0,992.8,1006
2021-08-02T03:56:00+09:00,0.3,��쐼,1.1,��쐼,25.8,88.4,0,0,0,0,0,0,992.8,1006
2021-08-02T03:57:00+09:00,0.4,��쐼,1.1,��쐼,25.9,88.4,0,0,0,0,0,0,992.8,1006
2021-08-02T03:58:00+09:00,0.3,�쐼,1.1,��쐼,26,88.2,0,0,0,0,0,0,992.8,1006
2021-08-02T03:59:00+09:00,0.3,�쐼,1.1,��쐼,25.8,87.5,0,0,0,0,0,0,992.8,1006
2021-08-02T04:00:00+09:00,0.4,��쐼,1.1,��쐼,25.8,87.4,0,0,0,0,0,0,992.9,1006.1
2021-08-02T04:01:00+09:00,0.4,��쐼,1.1,��쐼,26.1,87.7,0,0,0,0,0,0,992.9,1006.1
2021-08-02T04:02:00+09:00,0.4,�쐼,1.2,�쐼,25.8,87.3,0,0,0,0,0,0,992.9,1006.1
2021-08-02T04:03:00+09:00,0.5,�쐼,1.2,�쐼,25.6,87,0,0,0,0,0,0,992.9,1006.1
2021-08-02T04:04:00+09:00,0.5,�쐼,1.4,�쐼,25.5,87.2,0,0,0,0,0,0,992.9,1006.1
2021-08-02T04:05:00+09:00,0.6,�쐼,1.4,�쐼,25.8,88.2,0,0,0,0,0,0,992.9,1006.1
2021-08-02T04:06:00+09:00,0.7,�쐼,1.5,��쐼,25.5,87.9,0,0,0,0,0,0,992.9,1006.1
2021-08-02T04:07:00+09:00,0.8,�쐼,1.5,��쐼,25.4,87.8,0,0,0,0,0,0,992.9,1006.1
2021-08-02T04:08:00+09:00,0.8,�쐼,1.5,��쐼,25.7,89,0,0,0,0,0,0,992.9,1006.1
2021-08-02T04:09:00+09:00,0.9,�쐼,1.9,��쐼,25.7,88.5,0,0,0,0,0,0,992.9,1006.1
2021-08-02T04:10:00+09:00,1,�쐼,2.3,��쐼,25.8,88.4,0,0,0,0,0,0,993,1006.2
2021-08-02T04:11:00+09:00,1.2,��쐼,2.3,��쐼,25.7,87.7,0,0,0,0,0,0,993,1006.2
2021-08-02T04:12:00+09:00,1.2,��쐼,2.3,��쐼,25.5,87.5,0,0,0,0,0,0,993,1006.2
2021-08-02T04:13:00+09:00,1.2,��쐼,2.3,��쐼,25.7,87.8,0,0,0,0,0,0,993,1006.2
2021-08-02T04:14:00+09:00,1.2,��쐼,2.3,��쐼,25.7,88,0,0,0,0,0,0,993,1006.2
2021-08-02T04:15:00+09:00,1.2,��쐼,2.3,��쐼,25.8,87.8,0,0,0,0,0,0,993,1006.2
2021-08-02T04:16:00+09:00,1.2,��쐼,2.3,��쐼,25.9,87.5,0,0,0,0,0,0,993,1006.2
2021-08-02T04:17:00+09:00,1.2,��쐼,2.3,��쐼,25.6,86.7,0,0,0,0,0,0,993.1,1006.3
2021-08-02T04:18:00+09:00,1.2,��쐼,2.3,��쐼,25.7,87.3,0,0,0,0,0,0,993.1,1006.3
2021-08-02T04:19:00+09:00,1.1,��쐼,2.3,��쐼,25.9,87.5,0,0,0,0,0,0,993.1,1006.3
2021-08-02T04:20:00+09:00,1.1,��쐼,1.8,��쐼,25.7,87,0,0,0,0,0,0,993,1006.2
2021-08-02T04:21:00+09:00,1,��쐼,1.8,��쐼,25.6,86.8,0,0,0,0,0,0,993,1006.2
2021-08-02T04:22:00+09:00,0.9,��쐼,1.5,��쐼,25.8,87.5,0,0,0,0,0,0,993,1006.2
2021-08-02T04:23:00+09:00,0.9,��쐼,1.5,��쐼,25.8,87.5,0,0,0,0,0,0,993,1006.2
2021-08-02T04:24:00+09:00,0.8,��쐼,1.5,��쐼,25.9,87.6,0,0,0,0,0,0,993,1006.2
2021-08-02T04:25:00+09:00,0.7,��쐼,1.5,��쐼,25.7,87.3,0,0,0,0,0,0,993.1,1006.3
2021-08-02T04:26:00+09:00,0.7,��쐼,1.5,��쐼,25.8,87.4,0,0,0,0,0,0,993.1,1006.3
2021-08-02T04:27:00+09:00,0.7,��쐼,1.4,��,25.9,87.6,0,0,0,0,0,0,993.1,1006.3
2021-08-02T04:28:00+09:00,0.7,��쐼,1.3,��쐼,25.8,87.1,0,0,0,0,0,0,993.1,1006.3
2021-08-02T04:29:00+09:00,0.7,��쐼,1.3,��쐼,25.7,86.9,0,0,0,0,0,0,993.1,1006.3
2021-08-02T04:30:00+09:00,0.7,�쐼,1.3,��쐼,25.4,86.9,0,0,0,0,0,0,993.2,1006.4
2021-08-02T04:31:00+09:00,0.7,�쐼,1.5,��쐼,25.4,87.5,0,0,0,0,0,0,993.2,1006.4
2021-08-02T04:32:00+09:00,0.7,�쐼,1.5,��쐼,25.5,88.2,0,0,0,0,0,0,993.2,1006.4
2021-08-02T04:33:00+09:00,0.7,�쐼,1.5,��쐼,25.8,88.9,0,0,0,0,0,0,993.2,1006.4
2021-08-02T04:34:00+09:00,0.6,��쐼,1.5,��쐼,25.8,88.5,0,0,0,0,0,0,993.2,1006.4
2021-08-02T04:35:00+09:00,0.6,��쐼,1.5,��쐼,25.9,88.1,0,0,0,0,0,0,993.2,1006.4
2021-08-02T04:36:00+09:00,0.6,��쐼,1.5,��쐼,25.7,87.5,0,0,0,0,0,0,993.2,1006.4
2021-08-02T04:37:00+09:00,0.6,��쐼,1.5,��쐼,25.8,87.7,0,0,0,0,0,0,993.2,1006.4
2021-08-02T04:38:00+09:00,0.6,��,1.5,��쐼,25.7,87.8,0,0,0,0,0,0,993.2,1006.4
2021-08-02T04:39:00+09:00,0.5,��,1.5,��쐼,25.7,87.8,0,0,0,0,0,0,993.2,1006.4
2021-08-02T04:40:00+09:00,0.5,��,1.5,��쐼,25.6,88.2,0,0,0,0,0,0,993.2,1006.4
2021-08-02T04:41:00+09:00,0.5,��,1.5,��,25.5,88.6,0,0,0,0,0,0,993.2,1006.4
2021-08-02T04:42:00+09:00,0.5,��,1.5,��,25.3,89,0,0,0,0,0,0,993.2,1006.4
2021-08-02T04:43:00+09:00,0.5,��,1.5,��,25.3,89.4,0,0,0,0,0,0,993.2,1006.4
2021-08-02T04:44:00+09:00,0.5,��,1.5,��,25.4,90.3,0,0,0,0,0,0,993.2,1006.4
2021-08-02T04:45:00+09:00,0.6,��,1.5,��,25.5,90.4,0,0,0,0,0,0,993.2,1006.4
2021-08-02T04:46:00+09:00,0.7,��,2,��,25.5,89.7,0,0,0,0,0,0,993.2,1006.4
2021-08-02T04:47:00+09:00,0.8,��쐼,2,��,25.4,89.4,0,0,0,0,0,0,993.2,1006.4
2021-08-02T04:48:00+09:00,0.9,��쐼,2,��,25.3,88.8,0,0,0,0,0,0,993.2,1006.4
2021-08-02T04:49:00+09:00,0.9,��쐼,2,��,25.1,88.7,0,0,0,0,0,0,993.2,1006.5
2021-08-02T04:50:00+09:00,0.9,��쐼,2,��,25.3,89.1,0,0,0,0,0,0,993.2,1006.4
2021-08-02T04:51:00+09:00,1,��쐼,2,��,25.4,89.1,0,0,0,0,0,0,993.2,1006.4
2021-08-02T04:52:00+09:00,1,��,2,��,25.4,88.9,0,0,0,0,0,0,993.2,1006.4
2021-08-02T04:53:00+09:00,1.1,��,2,��,25.3,88.4,0,0,0,0,0,0,993.2,1006.4
2021-08-02T04:54:00+09:00,1.1,��,2,��,25.3,88.4,0,0,0,0,0,0,993.3,1006.6
2021-08-02T04:55:00+09:00,1.1,��,2,��,25.4,88.6,0,0,0,0,0,0,993.3,1006.5
2021-08-02T04:56:00+09:00,1.1,��,2,��,25.3,88.3,0,0,0,0,0,0,993.3,1006.6
2021-08-02T04:57:00+09:00,1.1,��,2,��,25.2,88.4,0,0,0,0,0,0,993.3,1006.6
2021-08-02T04:58:00+09:00,1.1,��,2,��,25.1,88.5,0,0,0,0,0,0,993.3,1006.6
2021-08-02T04:59:00+09:00,1.1,��,2,��,25.2,88.7,0,0,0,0,0,0,993.4,1006.7
2021-08-02T05:00:00+09:00,1.1,��,2,��,25.1,88.7,0,0,0,0,0,0,993.4,1006.7
2021-08-02T05:01:00+09:00,1.1,��,2,��,25.3,88.9,0,0,0,0,0,0,993.4,1006.7
2021-08-02T05:02:00+09:00,1.1,��,2,��쐼,25.2,88.8,0,0,0,0,0,0,993.4,1006.7
2021-08-02T05:03:00+09:00,1.1,��,2,��쐼,25.2,88.9,0,0,0,0,0,0,993.4,1006.7
2021-08-02T05:04:00+09:00,1.1,��,2,��쐼,25.2,88.7,0,0,0,0,0,0,993.4,1006.7
2021-08-02T05:05:00+09:00,1.2,��,2,��쐼,25.3,88.9,0,0,0,0,0,0,993.4,1006.7
2021-08-02T05:06:00+09:00,1.1,��쐼,2,��쐼,25.4,89,0,0,0,0,0,0,993.4,1006.6
2021-08-02T05:07:00+09:00,1.1,��쐼,2,��쐼,25.4,88.6,0,0,0,0,0,0,993.4,1006.6
2021-08-02T05:08:00+09:00,1,��쐼,2,��쐼,25.3,88,0,0,0,0,0,0,993.4,1006.7
2021-08-02T05:09:00+09:00,1,��쐼,2,��쐼,25.4,88.1,0,0,0,0,0,0,993.4,1006.6
2021-08-02T05:10:00+09:00,0.9,��쐼,1.9,��,25.4,87.9,0,0,0,0,0,0,993.4,1006.6
2021-08-02T05:11:00+09:00,0.9,��쐼,1.9,��,25.3,87.7,0,0,0,0,0,0,993.4,1006.7
2021-08-02T05:12:00+09:00,0.9,��쐼,1.7,��쐼,25.3,87.8,0,0,0,0,0,0,993.4,1006.7
2021-08-02T05:13:00+09:00,0.9,��쐼,1.7,��쐼,25.3,88.1,0,0,0,0,0,0,993.4,1006.7
2021-08-02T05:14:00+09:00,0.9,��쐼,1.7,��쐼,25.3,88.2,0,0,0,0,0,0,993.4,1006.7
2021-08-02T05:15:00+09:00,0.8,��쐼,1.5,��,25.3,88.1,0,0,0,0,0,0,993.4,1006.7